[[{"header":{"parameterUnit":"m.s-1","parameterCategory":1,"la1":30.2991,"la2":30.254,"lo1":-89.0895,"lo2":-89.0444,"dy":0.0017,"dx":0.0017,"nx":28,"ny":28,"refTime":"2025-01-12T03:00:00:Z","depth":0,"parameterNumber":2,"parameterNumberName":"U-component_of_WINDS"},"data":[0,0,0,0,0,0,0,0,0,0,0,0,0,0,0,0,0,0,0,0,0,0,0,0,0,0,0,0,0,0,0,0,0,0,0,0,0,0,0,0,0,0,0,0,0,0,0,0,0,0,0,0,0,0,0,0,0,0,-2.4342,-2.4343,0,-2.4439,-2.444,-2.4441,-2.4411,-2.4409,-2.4407,-2.4405,-2.4504,-2.4509,-2.4513,0,0,0,0,0,0,0,0,0,0,0,0,0,-2.4131,-2.4135,-2.4342,-2.4343,-2.4344,-2.4439,-2.444,-2.4441,-2.4412,-2.4409,-2.4407,-2.4404,-2.4503,-2.4508,-2.4514,0,0,0,0,0,0,0,0,0,0,0,0,0,-2.4225,-2.4136,-2.4342,-2.4341,-2.4342,-2.4439,-2.444,-2.4442,-2.4412,-2.4409,-2.4406,-2.4403,-2.4501,-2.4508,-2.4515,-2.4618,0,0,-2.4535,-2.4538,0,0,0,0,0,0,0,0,-2.4219,-2.4232,-2.434,-2.4341,-2.4342,-2.441,-2.4402,-2.4501,-2.4413,-2.4385,-2.4405,-2.4402,-2.4475,-2.4484,-2.4509,-2.4623,-2.4627,-2.4536,-2.454,-2.4543,-2.4545,0,0,0,0,0,0,0,-2.4213,-2.4228,-2.438,-2.4341,-2.4343,-2.4336,-2.4346,-2.4421,-2.4446,-2.4388,-2.4386,-2.4397,-2.4476,-2.4503,-2.4511,-2.4629,-2.4536,-2.4542,-2.4546,-2.4549,-2.4832,-2.4835,0,0,0,0,0,0,-2.4206,-2.4223,-2.4377,-2.4383,-2.4272,-2.4342,-2.4353,-2.4391,-2.4446,-2.4451,-2.44,-2.4396,-2.4493,-2.4503,-2.4515,-2.4639,-2.4543,-2.4549,-2.4553,-2.4828,-2.4833,-2.4836,0,0,0,0,0,0,-2.4201,-2.422,-2.4373,-2.4303,-2.4322,-2.4349,-2.4392,-2.4395,-2.4422,-2.4455,-2.4459,-2.4423,-2.4491,-2.4505,-2.4593,-2.4642,-2.4553,-2.4559,-2.4824,-2.483,-2.4834,-2.4889,0,0,0,0,0,0,-2.4195,-2.4218,-2.4258,-2.4304,-2.4325,-2.445,-2.4395,-2.4399,-2.4434,-2.4429,-2.4478,-2.4483,-2.4489,-2.4583,-2.4599,-2.465,-2.4564,-2.482,-2.4827,-2.4833,-2.4883,-2.4895,-2.4906,0,0,0,0,0,-2.4188,-2.4269,-2.426,-2.4279,-2.4376,-2.4453,-2.4465,-2.4471,-2.4438,-2.4478,-2.4499,-2.4481,-2.4634,-2.4592,-2.461,-2.4664,-2.4817,-2.4825,-2.4832,-2.4877,-2.4893,-2.4905,0,0,0,0,0,0,-2.4228,-2.4275,-2.4265,-2.4364,-2.4405,-2.4447,-2.4498,-2.4487,-2.4537,-2.4531,-2.4536,-2.4547,-2.4637,-2.4659,-2.4611,-2.4767,-2.4721,-2.4733,-2.4749,-2.4763,-2.4775,-2.4767,-2.457,0,0,0,0,0,-2.4249,-2.4308,-2.4345,-2.4429,-2.445,-2.4471,-2.4504,-2.4505,-2.4547,-2.4564,-2.4592,-2.4634,-2.4691,-2.4729,-2.4783,-2.4886,-2.4896,-2.4932,-2.4944,-2.4953,-2.4963,-2.5018,-2.5035,-2.4862,-2.4862,-2.4861,0,0,-2.4292,-2.4325,-2.4361,-2.4438,-2.4469,-2.453,-2.4485,-2.4551,-2.4596,-2.4574,-2.4658,-2.4681,-2.4727,-2.4823,-2.4866,-2.4844,-2.5013,-2.4963,-2.497,-2.4975,-2.5028,-2.5044,-2.5059,-2.4867,-2.4866,-2.4865,0,0,-2.44,-2.4432,-2.4504,-2.4537,-2.4585,-2.4598,-2.4616,-2.4661,-2.4674,-2.4759,-2.4744,-2.4798,-2.4896,-2.493,-2.496,-2.5083,-2.5068,-2.51,-2.516,-2.5214,-2.5228,-2.524,-2.5283,-2.5298,-2.511,-2.511,-2.511,0,-2.4447,-2.4538,-2.4543,-2.461,-2.4644,-2.4628,-2.4701,-2.4733,-2.4797,-2.482,-2.4795,-2.4918,-2.4949,-2.5052,-2.5082,-2.5107,-2.5127,-2.5094,-2.5226,-2.5238,-2.5249,-2.529,-2.5306,-2.5114,-2.5113,-2.5113,-2.5113,0,-2.4593,-2.4656,-2.4709,-2.4771,-2.4811,-2.4881,-2.4897,-2.4937,-2.4935,-2.4951,-2.5037,-2.5073,-2.5135,-2.5159,-2.5158,-2.5263,-2.5247,-2.5224,-2.5177,-2.5269,-2.5307,-2.5323,-2.5119,-2.5118,-2.5117,-2.5116,0,0,-2.4729,-2.4793,-2.4812,-2.484,-2.4892,-2.4941,-2.5011,-2.5071,-2.5105,-2.515,-2.5207,-2.5292,-2.5271,-2.5305,-2.5307,-2.5355,-2.5449,-2.5326,-2.5327,-2.5346,-2.5565,-2.5581,-2.5599,-2.544,-2.5443,-2.5445,-2.5561,0,-2.4841,-2.4963,-2.497,-2.508,-2.5138,-2.5124,-2.5185,-2.5223,-2.524,-2.5292,-2.5311,-2.537,-2.5338,-2.5359,-2.5406,-2.5427,-2.5492,-2.5419,-2.5493,-2.5496,-2.5481,-2.562,-2.5637,-2.5745,-2.5576,-2.5579,-2.558,0,-2.4988,-2.5037,-2.5154,-2.5197,-2.5222,-2.5276,-2.5332,-2.5382,-2.5425,-2.5434,-2.5473,-2.5469,-2.554,-2.5492,-2.559,-2.554,-2.5571,-2.5587,-2.5591,-2.5597,-2.5543,-2.5628,-2.5779,-2.5795,-2.5604,-2.5602,-2.5601,0,-2.5075,-2.517,-2.5252,-2.5276,-2.5329,-2.5368,-2.5392,-2.5432,-2.5468,-2.5517,-2.554,-2.5597,-2.5627,-2.5672,-2.5683,-2.5647,-2.578,-2.5734,-2.5789,-2.5789,-2.5817,-2.5815,-2.5974,-2.5839,-2.5839,-2.5839,-2.5838,0,-2.5199,-2.527,-2.5291,-2.5341,-2.5421,-2.5428,-2.5507,-2.5528,-2.5565,-2.5619,-2.561,-2.5661,-2.5674,-2.5727,-2.5736,-2.5816,-2.583,-2.5839,-2.584,-2.5839,-2.5838,-2.5859,-2.5851,-2.5843,-2.5842,-2.5841,-2.584,0,-2.5308,-2.5325,-2.5413,-2.5456,-2.5469,-2.5526,-2.5563,-2.5611,-2.5627,-2.5696,-2.5712,-2.5738,-2.58,-2.5816,-2.5891,-2.5897,-2.5991,-2.5986,-2.5976,-2.5975,-2.6029,-2.6024,-2.6206,-2.623,-2.6081,-2.6082,-2.6084,0,-2.5386,-2.544,-2.5489,-2.5525,-2.555,-2.5608,-2.5644,-2.5654,-2.5692,-2.5746,-2.5788,-2.5849,-2.5898,-2.5999,-2.6024,-2.6081,-2.6077,-2.6137,-2.6085,-2.6082,-2.6077,-2.6073,-2.6078,-2.6146,-2.6148,-2.6149,-2.615,0,-2.5521,-2.5527,-2.5579,-2.5635,-2.5678,-2.5723,-2.5765,-2.5795,-2.5811,-2.5854,-2.5917,-2.5956,-2.6032,-2.6093,-2.6151,-2.6175,-2.6166,-2.6166,-2.6182,-2.6181,-2.6172,-2.6176,-2.6001,-2.6162,-2.6161,-2.616,-2.6159,-2.6159,-2.5616,-2.5664,-2.5706,-2.5764,-2.5797,-2.5837,-2.5884,-2.5907,-2.596,-2.6022,-2.6025,-2.6094,-2.6136,-2.6212,-2.6241,-2.6295,-2.6277,-2.63,-2.6305,-2.6311,-2.6315,-2.6165,-2.6306,-2.6305,-2.6305,-2.6305,-2.6305,0,-2.575,-2.5777,-2.5831,-2.589,-2.5936,-2.5923,-2.5969,-2.6009,-2.607,-2.611,-2.6159,-2.6232,-2.6291,-2.6321,-2.638,-2.6417,-2.6414,-2.6432,-2.6429,-2.6435,-2.6328,-2.6308,-2.6434,-2.6434,-2.6434,-2.6434,-2.6434,-2.6434,-2.5825,-2.5905,-2.5916,-2.6011,-2.6037,-2.6104,-2.6132,-2.6169,-2.6201,-2.6282,-2.6331,-2.6351,-2.6387,-2.6448,-2.6502,-2.6509,-2.6531,-2.6551,-2.6556,-2.6456,-2.6442,-2.643,-2.6411,-2.6556,-2.6556,-2.6658,-2.6659,-2.666]},{"header":{"parameterUnit":"m.s-1","parameterCategory":1,"la1":30.2991,"la2":30.254,"lo1":-89.0895,"lo2":-89.0444,"dy":0.0017,"dx":0.0017,"nx":28,"ny":28,"refTime":"2025-01-12T03:00:00:Z","depth":0,"parameterNumber":3,"parameterNumberName":"V-component_of_WINDS"},"data":[0,0,0,0,0,0,0,0,0,0,0,0,0,0,0,0,0,0,0,0,0,0,0,0,0,0,0,0,0,0,0,0,0,0,0,0,0,0,0,0,0,0,0,0,0,0,0,0,0,0,0,0,0,0,0,0,0,0,1.0398,1.0398,0,1.0401,1.0401,1.0401,1.0346,1.0345,1.0343,1.0342,1.0344,1.0346,1.0347,0,0,0,0,0,0,0,0,0,0,0,0,0,1.0345,1.0346,1.0398,1.0398,1.0399,1.0401,1.0401,1.0401,1.0347,1.0345,1.0343,1.0341,1.0344,1.0346,1.0347,0,0,0,0,0,0,0,0,0,0,0,0,0,1.036,1.0347,1.0398,1.0372,1.0369,1.0401,1.0401,1.0401,1.0347,1.0345,1.0342,1.034,1.0343,1.0345,1.0348,1.0405,0,0,1.0354,1.0355,0,0,0,0,0,0,0,0,1.0359,1.0362,1.0375,1.0373,1.0371,1.0371,1.0383,1.0403,1.0347,1.0355,1.0342,1.0339,1.0355,1.0356,1.0361,1.0405,1.0405,1.0354,1.0356,1.0357,1.0357,0,0,0,0,0,0,0,1.0358,1.0362,1.0399,1.0376,1.0373,1.0359,1.0359,1.0387,1.0368,1.0354,1.035,1.0352,1.0353,1.0359,1.0361,1.0406,1.0354,1.0356,1.0358,1.0358,1.0496,1.0499,0,0,0,0,0,0,1.0361,1.0361,1.0399,1.04,1.0359,1.0362,1.0361,1.0373,1.0367,1.0364,1.0353,1.0349,1.0357,1.0359,1.0361,1.0428,1.0357,1.0359,1.036,1.0494,1.0497,1.0499,0,0,0,0,0,0,1.036,1.0365,1.0399,1.0379,1.0383,1.0365,1.0379,1.0374,1.0381,1.0366,1.0363,1.0363,1.0355,1.0358,1.0395,1.0427,1.036,1.0362,1.0491,1.0495,1.0498,1.0562,0,0,0,0,0,0,1.0359,1.0365,1.0387,1.038,1.0384,1.0433,1.0381,1.0376,1.0385,1.0379,1.0375,1.0372,1.0354,1.0392,1.0397,1.0429,1.0363,1.0488,1.0493,1.0497,1.0557,1.0567,1.0576,0,0,0,0,0,1.0357,1.0405,1.0388,1.0393,1.0411,1.0435,1.0437,1.0416,1.0387,1.0409,1.04,1.0372,1.0423,1.0396,1.0401,1.0434,1.0486,1.0492,1.0497,1.0553,1.0565,1.0576,0,0,0,0,0,0,1.0416,1.0403,1.0385,1.0432,1.0435,1.0426,1.0453,1.043,1.0441,1.0435,1.0407,1.0407,1.0448,1.0445,1.0415,1.049,1.0449,1.0456,1.049,1.0502,1.0511,1.0511,1.0365,0,0,0,0,0,1.0434,1.0455,1.0443,1.0486,1.0488,1.0471,1.048,1.0463,1.0465,1.0466,1.0459,1.0462,1.0479,1.049,1.0505,1.0556,1.0554,1.0582,1.0591,1.0599,1.0605,1.0632,1.0643,1.0517,1.0517,1.0517,0,0,1.0473,1.0468,1.0483,1.0498,1.0498,1.052,1.0472,1.0497,1.0513,1.047,1.0504,1.0499,1.0501,1.0545,1.0564,1.0544,1.064,1.0606,1.0613,1.0614,1.0638,1.065,1.0661,1.052,1.052,1.0519,0,0,1.0553,1.0553,1.0588,1.0589,1.059,1.0578,1.0587,1.0581,1.0576,1.061,1.0578,1.0596,1.0625,1.0627,1.0632,1.0714,1.0688,1.0719,1.0769,1.0795,1.0805,1.0814,1.0843,1.0853,1.0725,1.0725,1.0725,0,1.0601,1.0633,1.0609,1.0636,1.0643,1.0605,1.064,1.0643,1.0649,1.0654,1.0631,1.0667,1.0665,1.0709,1.0729,1.0734,1.0743,1.0719,1.0806,1.0814,1.0822,1.0849,1.086,1.0729,1.0729,1.0728,1.0728,0,1.0691,1.0713,1.0742,1.0748,1.0758,1.079,1.077,1.0783,1.0765,1.0755,1.079,1.0787,1.0799,1.0809,1.0792,1.085,1.0837,1.0811,1.077,1.0838,1.0863,1.0873,1.0734,1.0733,1.0732,1.0731,0,0,1.0809,1.0801,1.0812,1.0814,1.0813,1.0829,1.0859,1.0871,1.0883,1.0888,1.0912,1.0937,1.0912,1.0918,1.0901,1.0924,1.0988,1.0894,1.0894,1.0911,1.1052,1.1071,1.1084,1.0971,1.0973,1.0975,1.1051,0,1.0887,1.0936,1.0916,1.0967,1.0987,1.0951,1.0977,1.0978,1.097,1.0986,1.0976,1.0994,1.0961,1.0964,1.0985,1.0976,1.1016,1.097,1.0992,1.0993,1.0993,1.1096,1.1117,1.119,1.1061,1.1062,1.1064,0,1.0985,1.0994,1.1047,1.1041,1.1049,1.1072,1.1082,1.1097,1.1098,1.109,1.1097,1.1074,1.1102,1.1062,1.11,1.1069,1.1077,1.1074,1.1076,1.1077,1.1032,1.11,1.1213,1.1223,1.1079,1.1078,1.1076,0,1.1065,1.109,1.1125,1.1128,1.1123,1.114,1.1138,1.1137,1.1146,1.1154,1.1159,1.1171,1.1177,1.1187,1.1168,1.114,1.1208,1.1166,1.1202,1.1203,1.1217,1.1217,1.1333,1.1224,1.1224,1.1224,1.1223,0,1.1154,1.1188,1.1161,1.1183,1.1219,1.1195,1.1232,1.1227,1.1226,1.1245,1.1215,1.1234,1.1208,1.1225,1.121,1.1243,1.1247,1.1241,1.1236,1.1243,1.1244,1.1248,1.1242,1.1226,1.1226,1.1225,1.1225,0,1.1249,1.1233,1.1268,1.126,1.1259,1.1286,1.1279,1.1298,1.1287,1.1313,1.1317,1.13,1.1318,1.13,1.1317,1.1307,1.1352,1.134,1.1352,1.1348,1.1384,1.1381,1.1506,1.1521,1.1404,1.1405,1.1406,0,1.1307,1.1332,1.1326,1.1337,1.1337,1.1355,1.1364,1.1341,1.1351,1.1354,1.1373,1.1388,1.1399,1.1429,1.1418,1.1431,1.1419,1.1462,1.1421,1.1426,1.1419,1.1417,1.1419,1.147,1.1472,1.1473,1.1474,0,1.1411,1.1401,1.1415,1.1425,1.1437,1.1444,1.1449,1.146,1.1436,1.1449,1.1466,1.1475,1.1492,1.1507,1.1516,1.1514,1.149,1.1487,1.1496,1.1503,1.1508,1.1505,1.1374,1.1484,1.1483,1.1482,1.1482,1.1481,1.1488,1.1509,1.1508,1.1523,1.1525,1.153,1.1548,1.1539,1.1554,1.1565,1.1551,1.1573,1.1572,1.1582,1.1583,1.16,1.1581,1.1594,1.1598,1.1601,1.1606,1.1506,1.1602,1.1601,1.1601,1.1601,1.16,0,1.159,1.1587,1.1602,1.161,1.1623,1.1599,1.1603,1.1615,1.1634,1.1636,1.1647,1.1667,1.1682,1.1673,1.1685,1.17,1.1689,1.1704,1.1702,1.1702,1.1622,1.1613,1.1713,1.1713,1.1713,1.1713,1.1712,1.1712,1.1644,1.1677,1.1668,1.1701,1.1698,1.1719,1.1723,1.1728,1.1729,1.1753,1.1765,1.1758,1.1756,1.1767,1.178,1.1776,1.1782,1.1801,1.1794,1.1719,1.1708,1.1697,1.1688,1.1803,1.1803,1.1872,1.1873,1.1873]}]]